{"data":{"norad_id":36414,"epoch":"2026-05-25T03:26:34.461888Z","epoch_age_seconds":62571,"freshness":"FRESH","line1":"1 36414U 10009B   26145.14345442  .00000074  00000+0  11605-3 0  9999","line2":"2 36414  63.3674  57.4874 0536433  20.7236 341.4667 13.45704796796647","mean_motion":13.45704796,"eccentricity":0.0536433,"inclination_deg":63.3674,"raan_deg":57.4874,"arg_perigee_deg":20.7236,"mean_anomaly_deg":341.4667,"bstar":0.00011605,"rev_number":79664,"period_min":107.00712402009,"perigee_km":687.58971050644,"apogee_km":1488.6172673456,"semimajor_km":7466.240488926,"source":"CELESTRAK","updated_at":"2026-05-25T13:37:55.193846Z"}}